EN

Hourly Weather Lahovo

Today, 3 August, Tuesday

Time Temperature Precipitation Wind Pressure Humidity
00:00 +13°C° 0 mm 4 mps 734 mmHg 95%
01:00 +13°C° 0 mm 4 mps 735 mmHg 95%
02:00 +13°C° 0 mm 4 mps 735 mmHg 95%
03:00 +12°C° 0 mm 4 mps 735 mmHg 95%
04:00 +12°C° 0 mm 4 mps 735 mmHg 95%
05:00 +12°C° 0 mm 3 mps 736 mmHg 95%
06:00 +13°C° 0 mm 4 mps 736 mmHg 91%
07:00 +13°C° 0 mm 4 mps 736 mmHg 86%
08:00 +14°C° 0 mm 4 mps 736 mmHg 82%
09:00 +15°C° 0.2 mm 4 mps 737 mmHg 80%
10:00 +15°C° 0.2 mm 5 mps 737 mmHg 79%
11:00 +16°C° 0.2 mm 5 mps 737 mmHg 78%
12:00 +17°C° 0 mm 5 mps 738 mmHg 68%
13:00 +19°C° 0 mm 5 mps 738 mmHg 59%
14:00 +21°C° 0 mm 5 mps 738 mmHg 50%
15:00 +20°C° 0.1 mm 4 mps 738 mmHg 54%
16:00 +20°C° 0.1 mm 4 mps 738 mmHg 57%
17:00 +19°C° 0.1 mm 3 mps 738 mmHg 61%
18:00 +18°C° 0 mm 3 mps 739 mmHg 67%
19:00 +16°C° 0 mm 2 mps 739 mmHg 73%
20:00 +15°C° 0 mm 2 mps 739 mmHg 79%
21:00 +14°C° 0 mm 2 mps 740 mmHg 81%
22:00 +14°C° 0 mm 1 mps 740 mmHg 82%
23:00 +13°C° 0 mm 1 mps 741 mmHg 84%

Tomorrow, 4 August, Wednesday

Time Temperature Precipitation Wind Pressure Humidity
00:00 +13°C° 0 mm 1 mps 741 mmHg 84%
01:00 +13°C° 0 mm 1 mps 741 mmHg 84%
02:00 +12°C° 0 mm 1 mps 742 mmHg 84%
03:00 +13°C° 0 mm 1 mps 742 mmHg 83%
04:00 +13°C° 0 mm 1 mps 742 mmHg 81%
05:00 +13°C° 0 mm 1 mps 742 mmHg 80%
06:00 +14°C° 0 mm 1 mps 743 mmHg 71%
07:00 +16°C° 0 mm 1 mps 743 mmHg 63%
08:00 +18°C° 0 mm 1 mps 744 mmHg 55%
09:00 +19°C° 0 mm 1 mps 744 mmHg 50%
10:00 +20°C° 0 mm 1 mps 744 mmHg 45%
11:00 +21°C° 0 mm 2 mps 744 mmHg 41%
12:00 +21°C° 0 mm 2 mps 744 mmHg 38%
13:00 +23°C° 0 mm 2 mps 744 mmHg 36%
14:00 +23°C° 0 mm 2 mps 744 mmHg 34%
15:00 +23°C° 0 mm 2 mps 744 mmHg 35%
16:00 +23°C° 0 mm 2 mps 744 mmHg 37%
17:00 +23°C° 0 mm 1 mps 744 mmHg 38%
18:00 +21°C° 0 mm 1 mps 744 mmHg 45%
19:00 +19°C° 0 mm 1 mps 744 mmHg 53%
20:00 +16°C° 0 mm 2 mps 744 mmHg 60%
21:00 +16°C° 0 mm 2 mps 744 mmHg 60%
22:00 +16°C° 0 mm 2 mps 744 mmHg 60%
23:00 +16°C° 0 mm 2 mps 744 mmHg 59%

Day after tomorrow, 5 August, Thursday

Time Temperature Precipitation Wind Pressure Humidity
00:00 +16°C° 0 mm 2 mps 744 mmHg 62%
01:00 +15°C° 0 mm 2 mps 744 mmHg 65%
02:00 +15°C° 0 mm 2 mps 744 mmHg 67%
03:00 +15°C° 0.5 mm 2 mps 744 mmHg 75%
04:00 +14°C° 0.5 mm 1 mps 743 mmHg 82%
05:00 +13°C° 0.5 mm 1 mps 743 mmHg 89%
06:00 +14°C° 2.1 mm 1 mps 743 mmHg 91%
07:00 +14°C° 2.1 mm 1 mps 743 mmHg 94%
08:00 +14°C° 2.1 mm 1 mps 743 mmHg 96%
09:00 +14°C° 1.6 mm 2 mps 743 mmHg 96%
10:00 +13°C° 1.6 mm 3 mps 743 mmHg 96%
11:00 +13°C° 1.6 mm 3 mps 743 mmHg 96%
12:00 +13°C° 0.8 mm 3 mps 743 mmHg 96%
13:00 +13°C° 0.8 mm 3 mps 743 mmHg 95%
14:00 +13°C° 0.8 mm 3 mps 743 mmHg 95%
15:00 +13°C° 0.1 mm 3 mps 743 mmHg 94%
16:00 +13°C° 0.1 mm 3 mps 743 mmHg 93%
17:00 +13°C° 0.1 mm 3 mps 743 mmHg 93%
18:00 +14°C° 0 mm 2 mps 742 mmHg 93%
19:00 +13°C° 0 mm 2 mps 742 mmHg 94%
20:00 +13°C° 0 mm 2 mps 742 mmHg 94%
21:00 +12°C° 0 mm 2 mps 742 mmHg 95%
22:00 +10°C° 0 mm 2 mps 742 mmHg 96%
23:00 +10°C° 0 mm 2 mps 742 mmHg 97%

6 August, Friday

Time Temperature Precipitation Wind Pressure Humidity
00:00 +10°C° 0 mm 2 mps 742 mmHg 97%
01:00 +9°C° 0 mm 2 mps 742 mmHg 98%
02:00 +9°C° 0 mm 2 mps 742 mmHg 98%
03:00 +9°C° 0 mm 2 mps 741 mmHg 98%
04:00 +9°C° 0 mm 2 mps 741 mmHg 98%
05:00 +10°C° 0 mm 3 mps 741 mmHg 98%
06:00 +11°C° 0 mm 3 mps 741 mmHg 95%
07:00 +11°C° 0 mm 4 mps 740 mmHg 93%
08:00 +12°C° 0 mm 4 mps 740 mmHg 90%
09:00 +13°C° 0 mm 4 mps 740 mmHg 88%
10:00 +14°C° 0 mm 4 mps 740 mmHg 85%
11:00 +15°C° 0 mm 4 mps 740 mmHg 82%
12:00 +15°C° 0.1 mm 4 mps 740 mmHg 83%
13:00 +15°C° 0.1 mm 4 mps 739 mmHg 83%
14:00 +17°C° 0.1 mm 4 mps 739 mmHg 84%
15:00 +17°C° 0.5 mm 4 mps 738 mmHg 88%
16:00 +15°C° 0.5 mm 5 mps 738 mmHg 92%
17:00 +15°C° 0.5 mm 5 mps 738 mmHg 97%
18:00 +15°C° 0.2 mm 5 mps 737 mmHg 97%
19:00 +15°C° 0.2 mm 5 mps 737 mmHg 97%
20:00 +15°C° 0.2 mm 5 mps 736 mmHg 98%
21:00 +16°C° 1.2 mm 5 mps 736 mmHg 98%
22:00 +17°C° 1.2 mm 4 mps 736 mmHg 98%
23:00 +17°C° 1.2 mm 4 mps 735 mmHg 98%

7 August, Saturday

Time Temperature Precipitation Wind Pressure Humidity
00:00 +17°C° 0.5 mm 4 mps 735 mmHg 98%
01:00 +18°C° 0.5 mm 3 mps 735 mmHg 98%
02:00 +18°C° 0.5 mm 3 mps 735 mmHg 98%
03:00 +17°C° 0 mm 3 mps 735 mmHg 97%
04:00 +17°C° 0 mm 3 mps 735 mmHg 97%
05:00 +17°C° 0 mm 3 mps 735 mmHg 96%
06:00 +17°C° 0 mm 3 mps 736 mmHg 95%
07:00 +16°C° 0 mm 3 mps 736 mmHg 94%
08:00 +16°C° 0 mm 3 mps 736 mmHg 92%
09:00 +17°C° 0 mm 4 mps 736 mmHg 85%
10:00 +18°C° 0 mm 4 mps 737 mmHg 77%
11:00 +17°C° 0 mm 5 mps 737 mmHg 69%
12:00 +19°C° 0 mm 5 mps 737 mmHg 68%
13:00 +19°C° 0 mm 5 mps 737 mmHg 67%
14:00 +20°C° 0 mm 5 mps 738 mmHg 66%
15:00 +20°C° 0 mm 4 mps 738 mmHg 66%
16:00 +20°C° 0 mm 4 mps 738 mmHg 65%
17:00 +20°C° 0 mm 4 mps 738 mmHg 64%
18:00 +19°C° 0 mm 4 mps 738 mmHg 69%
19:00 +18°C° 0 mm 4 mps 739 mmHg 73%
20:00 +17°C° 0 mm 3 mps 739 mmHg 78%
21:00 +17°C° 0 mm 3 mps 739 mmHg 79%
22:00 +17°C° 0 mm 3 mps 740 mmHg 79%
23:00 +16°C° 0 mm 3 mps 740 mmHg 80%

8 August, Sunday

Time Temperature Precipitation Wind Pressure Humidity
00:00 +16°C° 0 mm 3 mps 740 mmHg 79%
01:00 +16°C° 0 mm 3 mps 740 mmHg 78%
02:00 +16°C° 0 mm 3 mps 741 mmHg 78%
03:00 +16°C° 0 mm 3 mps 741 mmHg 81%
04:00 +14°C° 0 mm 3 mps 741 mmHg 84%
05:00 +14°C° 0 mm 3 mps 742 mmHg 87%
06:00 +16°C° 0 mm 3 mps 742 mmHg 83%
07:00 +17°C° 0 mm 3 mps 742 mmHg 79%
08:00 +18°C° 0 mm 3 mps 743 mmHg 75%
09:00 +20°C° 0 mm 3 mps 743 mmHg 65%
10:00 +21°C° 0 mm 2 mps 743 mmHg 56%
11:00 +24°C° 0 mm 2 mps 744 mmHg 47%
12:00 +25°C° 0 mm 2 mps 744 mmHg 45%
13:00 +26°C° 0 mm 2 mps 744 mmHg 43%
14:00 +26°C° 0 mm 2 mps 744 mmHg 41%
15:00 +26°C° 0 mm 2 mps 744 mmHg 44%
16:00 +26°C° 0 mm 2 mps 743 mmHg 46%
17:00 +26°C° 0 mm 2 mps 743 mmHg 49%
18:00 +24°C° 0 mm 2 mps 743 mmHg 57%
19:00 +21°C° 0 mm 2 mps 743 mmHg 65%
20:00 +19°C° 0 mm 2 mps 743 mmHg 73%
21:00 +18°C° 0 mm 2 mps 743 mmHg 74%
22:00 +18°C° 0 mm 2 mps 743 mmHg 75%
23:00 +17°C° 0 mm 2 mps 743 mmHg 75%
Show more